METEOR 2-11 DEB, 40703

Orbit data source: Space-Track

METEOR 2-11 DEB, 40703 is space debris in LEO originally from a launch on Thu, 05 Jul 1984 UTC launched from the Plesetsk Missile And Space Complex (PKMTR). Debris objects in space refer to the collection of defunct objects orbiting the Earth. Examples of debris include non-operational satellites, rocket bodies, and fragments generated from explosions, collisions, or faulty payload assembly.

Loading next visibility...
Identifier
40703, 1984-072E
Orbit
LEO
Country
Flag of CISCIS
Related business
Manufacturer
Unknown
Mission
Spacecraft
Bus & Motor
Unknown
Mass
Unknown
Launch date (UTC)
1984-07-05 (42 years ago)
Launch vehicle
Unknown
Launch site
Plesetsk Missile And Space Complex (PKMTR)
Object type
Payload
Rocket body
Debris
Shape & HBR
Unknown shape, 0.1 m
Radar Cross Section
Small (<0.1 m²)

Expand to show TLE details & history
Last TLE update: 1 day ago

TLE from 1 day ago
0 METEOR 2-11 DEB
1 40703U 84072E   26208.64962694  .00001961  00000-0  13945-2 0  9990
2 40703  82.5137 335.7288 0007642 173.8956 186.2306 13.97068933574917
Epoch: 2026-07-27T15:35Z
TLE epoch observation values (Epoch: 2026-07-27T15:35:27.767Z)
Latitude
-0.00002°
Longitude
156.53293°
Altitude
912.415 km
Speed
7.393 km/s
True Right ascension
22h 22m 54s
True Declination
0° 00' 00"
Sunlit
Object was in full shadow at epoch
Visualization orbit readout
Latitude
Unknown
Longitude
Unknown
Altitude
Unknown
Speed
Unknown
Apparent Right ascension
Unknown
Apparent Declination
Unknown
Sunlit
N/A
Visualization observer readout
Local Sidereal Time
06:25:40
Azimuth
Unknown
Elevation
Unknown
Doppler factor
Unknown
Orbital elements
Apogee altitude
906.661 km
Perigee altitude
895.535 km
Semi-major axis
7,279.235 km
Eccentricity
0.00076
Inclination
82.5137°
RAAN
335.7288°
Arg. of periapsis
173.8956°
True anomaly
186.2211°
Mean anomaly
186.2306°
Eccentric anomaly
186.22585°
Mean motion
3.49474 °/min
Orbital period
103.01 mins
BSTAR
0.0013945
Loading maneuver chart data...
Computing Atmospheric mass density...
Loading historical data...
Loading historical data...
Loading historical data...
Loading historical data...
Loading historical data...
Loading historical data...
Loading historical data...

Documentation

Showing up to 5 results
|